Zurück zum Katalog

SL-12 R/B(2)

AktivGEO
NORAD 21824·ROCKET BODY·🇷🇺 Russia

Gestartet Dec 19, 1991 von Baikonur Cosmodrome

Loading…

TLE

AktuellSource: Space-Track

Epoche: Sep 14, 2026, 12:47 UTC

1 21824U 91087D   26257.53283993 -.00000217  00000-0  00000+0 0  9996
2 21824  14.3141 343.6002 0013986  82.7233 274.5574  0.98021467124348

Verfolge SL-12 R/B(2) in Echtzeit mit AllMySat

Download on the App Store